This demonstration page uses our WeatherBlox Daily Observations layout. Learn more.

Left ArrowRight Arrow

Hourly Observations for January 26, 2017

Temp ( °F °C ) Dew Point ( °F °C ) Humidity (%) Winds ( mph kmh ) Pressure ( in mb ) Visibility ( mi km ) Precip ( " mm )
12:15 am 00:15 Clear 43 6 37 3 81 81 N N/A 29.56 1001 10 16 N/A
12:35 am 00:35 Clear 41 5 37 3 87 87 N N/A 29.59 1002 10 16 N/A
12:55 am 00:55 Clear 43 6 39 4 87 87 N N/A 29.53 1000 10 16 N/A
1:15 am 01:15 Clear 43 6 39 4 87 87 N N/A 29.53 1000 10 16 N/A
1:35 am 01:35 Clear 41 5 37 3 87 87 N N/A 29.53 1000 10 16 N/A
1:55 am 01:55 Clear 41 5 37 3 87 87 N N/A 29.53 1000 10 16 N/A
2:15 am 02:15 Clear 41 5 39 4 93 93 N 3 6 29.53 1000 10 16 N/A
2:35 am 02:35 Partly Cloudy 41 5 37 3 87 87 NNW 5 7 29.53 1000 10 16 N/A
2:55 am 02:55 Partly Cloudy 43 6 39 4 87 87 N N/A 29.50 999 10 16 N/A
3:15 am 03:15 Clear 41 5 37 3 87 87 N N/A 29.50 999 10 16 N/A
3:35 am 03:35 Clear 43 6 39 4 87 87 N N/A 29.50 999 10 16 N/A
3:55 am 03:55 Clear 43 6 39 4 87 87 N N/A 29.47 998 10 16 N/A
4:15 am 04:15 Clear 41 5 41 5 100 100 N N/A 29.47 998 10 16 N/A
4:35 am 04:35 Clear 43 6 39 4 87 87 N N/A 29.47 998 10 16 N/A
4:55 am 04:55 Clear 43 6 41 5 93 93 N N/A 29.47 998 10 16 N/A
5:15 am 05:15 Partly Cloudy 43 6 39 4 87 87 WNW 5 7 29.47 998 10 16 N/A
5:35 am 05:35 Partly Cloudy 43 6 39 4 87 87 W 5 7 29.47 998 10 16 N/A
5:55 am 05:55 Partly Cloudy 43 6 39 4 87 87 N N/A 29.47 998 10 16 N/A
6:15 am 06:15 Partly Cloudy 45 7 39 4 81 81 SSW 3 6 29.47 998 10 16 N/A
6:35 am 06:35 Cloudy 45 7 41 5 87 87 N 6 9 29.50 999 10 16 N/A
6:55 am 06:55 Cloudy 45 7 41 5 87 87 N N/A 29.50 999 10 16 N/A
7:15 am 07:15 Cloudy 45 7 41 5 87 87 N N/A 29.50 999 10 16 N/A
7:35 am 07:35 Cloudy 46 8 41 5 82 82 E 3 6 29.50 999 10 16 N/A
7:55 am 07:55 Cloudy 46 8 41 5 82 82 ENE 5 7 29.47 998 10 16 N/A
8:15 am 08:15 Cloudy 50 10 41 5 71 71 NE 5 7 29.50 999 10 16 N/A
8:35 am 08:35 Mostly Cloudy 46 8 43 6 87 87 N 6 9 29.50 999 10 16 N/A
8:55 am 08:55 Cloudy 48 9 43 6 82 82 N 7 11 29.50 999 10 16 N/A
9:15 am 09:15 Cloudy 52 11 45 7 77 77 NNW 12 19 29.50 999 10 16 N/A
9:35 am 09:35 Cloudy 54 12 43 6 67 67 NW 12 19 29.53 1000 10 16 N/A
9:55 am 09:55 Partly Cloudy 52 11 41 5 67 67 WNW 12 19 29.53 1000 10 16 N/A
10:15 am 10:15 Sunny 55 13 41 5 59 59 NW 20 31 29.53 1000 10 16 N/A
10:35 am 10:35 Sunny 55 13 39 4 55 55 WNW 25 41 29.50 999 10 16 N/A
10:55 am 10:55 Sunny 57 14 37 3 48 48 WNW 21 33 29.53 1000 10 16 N/A
11:15 am 11:15 Sunny 57 14 36 2 44 44 NW 26 43 29.53 1000 10 16 N/A
11:35 am 11:35 Sunny 55 13 37 3 51 51 NW 24 39 29.53 1000 10 16 N/A
11:55 am 11:55 Sunny 54 12 36 2 51 51 NW 32 52 29.53 1000 10 16 N/A
12:15 pm 12:15 Sunny 54 12 36 2 51 51 NW 24 39 29.53 1000 10 16 N/A
12:35 pm 12:35 Sunny 55 13 34 1 44 44 WNW 33 54 29.53 1000 10 16 N/A
12:55 pm 12:55 Sunny 54 12 32 undefined 44 44 NW 26 43 29.53 1000 10 16 N/A
1:15 pm 13:15 Partly Cloudy 54 12 32 undefined 44 44 WNW 31 50 29.56 1001 10 16 N/A
1:35 pm 13:35 Mostly Cloudy 52 11 32 undefined 47 47 WNW 22 35 29.56 1001 10 16 N/A
1:55 pm 13:55 Cloudy 52 11 32 undefined 47 47 WNW 31 50 29.59 1002 10 16 N/A
2:15 pm 14:15 Mostly Cloudy 50 10 32 undefined 50 50 NW 30 48 29.59 1002 10 16 N/A
2:55 pm 14:55 Mostly Cloudy 50 10 30 -1 47 47 WNW 24 39 29.62 1003 10 16 N/A
3:15 pm 15:15 Cloudy 48 9 30 -1 50 50 WNW 24 39 29.62 1003 10 16 N/A
3:35 pm 15:35 Cloudy 46 8 30 -1 53 53 WNW 29 46 29.65 1004 10 16 N/A
3:55 pm 15:55 Cloudy 46 8 30 -1 53 53 WNW 26 43 29.65 1004 10 16 N/A
4:15 pm 16:15 Cloudy 46 8 30 -1 53 53 NW 26 43 29.65 1004 10 16 N/A
4:35 pm 16:35 Cloudy 46 8 30 -1 53 53 WNW 23 37 29.65 1004 10 16 N/A
4:55 pm 16:55 Cloudy 45 7 30 -1 57 57 W 25 41 29.68 1005 10 16 N/A
5:15 pm 17:15 Cloudy 45 7 30 -1 57 57 WNW 20 31 29.68 1005 10 16 N/A
5:35 pm 17:35 Cloudy 45 7 30 -1 57 57 WNW 22 35 29.68 1005 10 16 N/A
5:55 pm 17:55 Mostly Cloudy 45 7 30 -1 57 57 WNW 20 31 29.68 1005 10 16 N/A
6:15 pm 18:15 Partly Cloudy 45 7 30 -1 57 57 WNW 15 24 29.71 1006 10 16 N/A
6:35 pm 18:35 Mostly Cloudy 45 7 30 -1 57 57 WNW 6 9 29.71 1006 10 16 N/A
6:55 pm 18:55 Cloudy 45 7 30 -1 57 57 NW 8 13 29.71 1006 10 16 N/A
7:15 pm 19:15 Cloudy 45 7 30 -1 57 57 N N/A 29.74 1007 10 16 N/A
7:35 pm 19:35 Cloudy 45 7 30 -1 57 57 WNW 13 20 29.74 1007 10 16 N/A
7:55 pm 19:55 Cloudy 45 7 30 -1 57 57 WNW 5 7 29.74 1007 10 16 N/A
8:15 pm 20:15 Cloudy 45 7 30 -1 57 57 WNW 9 15 29.80 1009 10 16 N/A
8:35 pm 20:35 Cloudy 45 7 32 undefined 61 61 NW 20 31 29.80 1009 10 16 N/A
8:55 pm 20:55 Partly Cloudy 43 6 32 undefined 66 66 WNW 24 39 29.80 1009 10 16 N/A
9:15 pm 21:15 Clear 43 6 32 undefined 66 66 NW 13 20 29.80 1009 10 16 N/A
9:35 pm 21:35 Mostly Cloudy 43 6 32 undefined 66 66 NW 10 17 29.83 1010 10 16 N/A
9:55 pm 21:55 Cloudy 43 6 32 undefined 66 66 NW 21 33 29.83 1010 10 16 N/A
10:15 pm 22:15 Mostly Cloudy 43 6 32 undefined 66 66 WNW 23 37 29.83 1010 10 16 N/A
10:35 pm 22:35 Partly Cloudy 43 6 32 undefined 66 66 WNW 16 26 29.83 1010 10 16 N/A
10:55 pm 22:55 Clear 43 6 32 undefined 66 66 WNW 20 31 29.83 1010 10 16 N/A
11:15 pm 23:15 Partly Cloudy 43 6 30 -1 61 61 WNW 20 31 29.83 1010 10 16 N/A
11:35 pm 23:35 Cloudy 43 6 30 -1 61 61 NW 21 33 29.83 1010 10 16 N/A
11:55 pm 23:55 Cloudy 43 6 30 -1 61 61 WNW 23 37 29.83 1010 10 16 N/A

Powered by AerisWeather